Location: Newark
(48.4472°N, 1.4892°E)
Time: 03:25:43
(UTC+00:00)

Transit 4A - Pass Details

Date: 30 November 2019
Orbit: 870 x 975 km, 66.8° (Epoch: 06 December)

Event Time Altitude Azimuth Distance (km) Brightness Sun altitude
Exits shadow 05:21:01 23° 237° (WSW) 1,760 9.0 -19.5°
Drops below altitude 10° 05:24:34 10° 200° (SSW) 2,510 10.1 -18.9°
Sets 05:27:27 0° 187° (S) 3,442 10.9 -18.4°
